軌道要素
Epoch 2019 Dec. 23.0 TT = JDT 2458840.5
T 2019 Dec. 10.06199 TT Rudenko
q 2.2913546 (2000.0) P Q
z +0.0013984 Peri. 82.65279 -0.55012593 +0.81812870
+/-0.0000018 Node 208.14429 +0.55476101 +0.50788434
e 0.9967958 Incl. 159.21161 +0.62418082 +0.26966446
H 16.5
From 93 observations 2019 Feb. 27-2020 Sept. 13, mean residual 0".5.
|